sat.trackr.live / text

‹ back to catalog

STARLINK-31966

NORAD 59944 · 2024-106Y

PAYLOAD ACTIVE UNKNOWN

§ Identity

Operator
Country
US
Launch date
2024-06-01
Launch site
AFETR
Launch vehicle
Mass (kg)
RCS (m²)

Purposes: comms

External: N2YO · Heavens-Above · Gunter

§ Orbital elements

Epoch: 2026-05-25T00:18:08.748864Z

Period
94.27 min
Inclination
42.9986°
Eccentricity
0.0001181
Mean motion
15.27583804 rev/d
Perigee alt
482.2 km
Apogee alt
483.8 km
Semi-major
6,861.2 km
B*
8.7985e-5
RAAN
261.6396°
Arg perigee
274.8616°
Mean anomaly
85.2101°
Rev number
11,224

§ Raw data

STARLINK-319661 59944U 24106Y   26145.01260126  .00002160  00000+0  87985-4 0  99992 59944  42.9986 261.6396 0001181 274.8616  85.2101 15.27583804112249

JSON: /api/v1/satellites/59944 · /tle

For live sub-satellite position, see the globe view (requires WebGL).

§ Visibility from observer

Set your observer location to see the next 7 days of passes ≥ 10°. The values pass through the URL so the page stays shareable.

No JS? Fill the form by hand. The geolocation button needs JavaScript.